Regional Weather Roundup
Issued by NWS Newport/Morehead, NC

Current Version | Previous Version | Graphics & Text | Print | Product List | Glossary Off
Versions: 1 2 3 4 5 6 7 8 9 10 11 12 13 14 15 16 17 18 19 20 21 22 23 24 25 26 27 28 29 30 31 32 33 34 35 36 37 38 39 40 41

000
ASUS42 KMHX 240022
RWRMHX
WEATHER ROUNDUP FOR EASTERN NORTH CAROLINA
NATIONAL WEATHER SERVICE NEWPORT/MOREHEAD CITY NC
800 PM EDT WED APR 23 2014

NOTE: "FAIR" INDICATES FEW OR NO CLOUDS BELOW 12,000 FEET
WITH NO SIGNIFICANT WEATHER AND/OR OBSTRUCTIONS TO VISIBILITY

NCZ015>017-031-032-045>047-102-103-240100-
NORTH COAST

CITY           SKY/WX    TMP DP  RH WIND       PRES   REMARKS
EDENTON        CLEAR     62  36  38 N3        29.86R
ELIZABETH CITY CLEAR     62  39  42 N7        29.85R
KITTY HAWK     CLEAR     55  40  57 N5        29.83S
MANTEO         CLEAR     54  41  60 S3        29.87R

$$

NCZ045>047-081-094-103-104-240100-
CENTRAL COAST

CITY           SKY/WX    TMP DP  RH WIND       PRES   REMARKS
FRISCO         CLEAR     53  40  61 E5        29.86R
SWANQUARTER      N/A     61 N/A N/A E5        29.82R

$$

NCZ095-097-098-100-101-240100-
SOUTHERN COAST

CITY           SKY/WX    TMP DP  RH WIND       PRES   REMARKS
BEAUFORT       CLEAR     65  43  44 N9        29.85R
CEDAR ISLAND     N/A     61 N/A N/A E6        29.88R
JACKSONVILLE   CLEAR     66  33  29 NW9       29.87R
NEWPORT          N/A     64  36  34 NW3         N/A
PINEY ISLAND   CLEAR     66  46  48 NW9       29.85R
WILMINGTON     CLEAR     69  35  28 N9        29.86R


$$

NCZ011>013-027>030-043-044-078>080-089-090>093-098-240100-
COASTAL PLAIN

CITY           SKY/WX    TMP DP  RH WIND       PRES   REMARKS
AHOSKIE        CLEAR     60  36  40 CALM      29.86R
CLINTON        CLEAR     63  40  43 CALM      29.88R
ELIZABETHTOWN  CLEAR     67  36  31 CALM      29.86R
GOLDSBORO      CLEAR     67  32  26 N2        29.86R
GREENVILLE     CLEAR     63  36  36 CALM      29.89R
HAVELOCK       PTCLDY    66  33  29 NW10      29.87R
KENANSVILLE    CLEAR     60  35  39 CALM      29.88R
KINSTON        CLEAR     61  39  44 CALM      29.88R
NEW BERN       CLEAR     65  35  33 NW3       29.87R
RICHLANDS      CLEAR     61  57  88 CALM      29.89R
ROANOKE RAPIDS NOT AVBL
ROCKY MOUNT    CLEAR     65  31  28 CALM      29.86R
WASHINGTON     CLEAR     63  29  27 N3        29.87R
WHITEVILLE     CLEAR     69  38  31 CALM      29.85R

$$

AMZ130-135-150-152-154-156-158-170-250-252-270-ANZ085-086-088-633-658-670-240100-
MARINE OBSERVATIONS

STATION/POSITION TIME  TEMP    WIND        PRES    WAVE   SWELL
                       AIR SEA DIR/SP/G            HT/PER HT/PER
                 (UTC) (F)     (DEG/KT/KT) (MB)    (FT/S) (FT/S)
CHESAPEAKE LIGHT 0000   57     330/ 24/ 24 1010.9
BUOY 44014       2300   52 49  340/ 14/ 16 1009.0    5/ 5   2/ 9
DUCK             0000   54 51   10/ 14/ 15 1009.7
2E DUCK          0000      49                N/A     3/ 5
OREGON INLET     0000   53 55  310/  2/  2 1011.1
BUOY 44095       0000      50                N/A     4/ 9   2/15
HATTERAS CG      0000   56 61   70/  5/  8 1011.5
DIAMOND BUOY     0000   62 75   30/  8/ 12 1010.8    5/ 8   5/ 8
CAPE LOOKOUT     0000   62     190/  2/  2 1010.9
BEAUFORT LAB     0000   66 62  330/  5/  8 1010.4
30 SE NEW RIVER  0000   70 70  340/ 16/ 19 1010.7    3/ 9   2/ 9
5 SE WRIGHTSVILL 0000   67 64   10/  8/ 10 1011.0
FRYING PAN BUOY  0000   68 68  260/ 12/ 14 1010.1    2/ 8   2/ 8
BUOY 41001       NOT AVBL
BUOY 41002       NOT AVBL
BUOY 41004       0000   69 67  250/  4/  6 1010.3    2/ 5   2/ 5

$$



USA.gov is the U.S. government's official web portal to all federal, state and local government web resources and services.